#timestamp,LO_Frequency,Hit 
1499169615.3,286046975.8,N
1499169635.2,286046978.2,N
1499169655.0,286046978.1,N
1499169655.9,286046978.1,N
1499169675.8,286046978.2,N
1499169695.6,286046978.2,N
1499169715.4,286046977.6,N
1499169735.3,286046977.4,N
1499169755.1,286046978.0,N
1499169775.8,286046978.1,N
1499169795.7,286046978.0,N
1499169815.5,286046977.8,N
1499169835.4,286046977.9,N
1499169855.2,286046977.8,N
1499169875.0,286046978.1,N
1499169875.9,286046978.1,N
1499169895.8,286046978.8,N
1499169915.6,286046976.2,N
1499169935.4,286046975.9,N
1499169955.3,286046975.9,N
1499169975.1,286046978.3,N
1499169995.9,286046978.0,N
1499170015.7,286046980.0,N
1499170035.5,286046980.4,N
1499170055.4,286046977.7,N
1499170075.2,286046976.0,N
1499170095.0,286046978.7,N
1499170095.9,286046978.7,N
1499170115.8,286046977.0,N
1499170135.6,286046974.1,N
1499170155.4,286046980.1,N
1499170175.3,286046979.5,N
1499170195.1,286046977.8,N
1499170215.9,286046978.9,N
1499170235.7,286046980.1,N
1499170255.5,286046982.0,N
1499170275.4,286046978.0,N
1499170295.2,286046977.8,N
1499170315.0,286046977.9,N
1499170315.9,286046977.9,N
1499170335.8,286046977.8,N
1499170355.6,286046980.4,N
1499170375.5,286046974.7,N
1499170395.3,286046975.1,N
1499170415.1,286046974.6,N
1499170435.9,286046975.3,N
1499170455.7,286046974.4,N
1499170475.5,286046976.9,N
1499170495.4,286046978.4,N
1499170515.2,286046978.4,N
1499170535.1,286046977.9,N
1499170536.0,286046977.9,N
1499170555.8,286046978.6,N
1499170575.6,286046980.4,N
1499170595.5,286046980.3,N
1499170615.3,286046978.4,N
1499170635.1,286046976.5,N
1499170655.9,286046980.4,N
1499170675.7,286046978.4,N
1499170695.6,286046976.1,N
1499170715.4,286046978.7,N
1499170735.2,286046977.9,N
1499170755.1,286046978.0,N
1499170756.0,286046978.0,N
1499170775.8,286046978.3,N
1499170795.6,286046978.8,N
1499170815.5,286046978.1,N
1499170835.3,286046977.9,N
1499170855.2,286046976.9,N
1499170875.9,286046975.6,N
1499170895.7,286046978.7,N
1499170915.6,286046978.7,N
1499170935.4,286046975.7,N
1499170955.2,286046976.8,N
1499170975.1,286046979.5,N
1499170976.0,286046979.5,N
1499170995.8,286046977.0,N
1499171015.7,286046975.7,N
1499171035.5,286046976.1,N
1499171055.3,286046978.1,N
1499171075.2,286046979.3,N
1499171095.0,286046977.9,N
1499171095.9,286046977.9,N
1499171115.7,286046979.5,N
1499171135.6,286046980.9,N
1499171155.4,286046979.9,N
1499171175.3,286046976.2,N
1499171195.1,286046976.8,N
1499171196.0,286046976.8,N
1499171215.8,286046976.3,Y
1499171235.7,286047001.9,N
1499171255.5,286047001.8,N
1499171275.4,286047001.8,N
1499171295.2,286047004.1,N
1499171315.0,286047003.2,N
1499171315.9,286047003.2,N
1499171335.8,286047006.0,N
1499171355.6,286047003.6,N
1499171375.4,286047005.9,N
1499171395.3,286047002.5,N
1499171415.1,286047000.9,N
1499171435.9,286047000.2,N
1499171455.7,286047000.6,N
1499171475.5,286047001.3,N
1499171495.4,286047003.1,N
1499171515.2,286047006.0,N
1499171535.1,286046999.7,N
1499171536.0,286046999.7,N
1499171555.8,286047000.7,N
1499171575.6,286047000.1,N
1499171595.5,286047002.3,N
1499171615.3,286047003.3,N
1499171635.2,286047000.3,N
1499171655.9,286046999.8,N
1499171675.7,286047002.7,N
1499171695.6,286047000.2,N
1499171715.4,286047000.2,N
1499171735.2,286047000.3,N
1499171755.1,286047000.0,N
1499171756.0,286047000.0,N
1499171775.8,286047001.4,N
1499171795.7,286047003.5,N
1499171815.5,286047003.3,N
1499171835.3,286047003.5,N
1499171855.2,286047002.9,N
1499171875.9,286047004.8,N
1499171895.7,286047003.0,N
1499171915.6,286047004.1,N
1499171935.4,286047004.3,N
1499171955.3,286047001.3,N
1499171975.1,286047006.0,N
1499171976.0,286047006.0,N
1499171995.8,286047005.2,N
1499172015.7,286047004.7,N
1499172035.5,286047004.9,N
1499172055.3,286047005.0,N
1499172075.2,286047007.5,N
1499172095.0,286047004.9,N
1499172095.9,286047004.9,N
1499172145.8,286047007.2,Y
1499172155.7,286047001.9,N
1499172175.5,286046996.7,N
1499172195.4,286046997.3,N
1499172215.2,286046996.7,N
1499172235.1,286046996.5,N
1499172236.0,286046996.5,N
1499172255.8,286046997.1,N
1499172275.6,286046997.1,N
1499172295.5,286046997.7,N
1499172315.3,286046997.0,N
1499172335.1,286046998.9,N
1499172355.9,286046998.2,N
1499172375.7,286047000.0,N
1499172395.6,286046999.8,N
1499172415.4,286047002.7,N
1499172435.2,286047002.5,N
1499172455.1,286047001.6,N
1499172456.0,286047001.6,N
1499172475.8,286047001.9,N
1499172495.6,286047002.0,N
1499172515.5,286047002.0,N
1499172535.3,286047001.3,N
1499172555.2,286047004.3,N
1499172575.9,286047001.8,N
1499172595.7,286047001.8,N
1499172615.6,286047001.6,N
1499172635.4,286047001.7,N
1499172655.2,286047002.0,N
1499172675.1,286047002.5,N
1499172676.0,286047002.5,N
1499172695.8,286046999.8,N
1499172715.7,286047000.6,N
1499172735.5,286047001.2,N
1499172755.3,286047001.2,N
1499172805.2,286047000.5,Y
1499172815.1,286047000.6,N
1499172835.9,286046998.2,N
1499172855.7,286047000.8,N
1499172875.5,286047000.5,N
1499172895.4,286047000.7,N
1499172915.2,286046999.3,N
1499172935.0,286046998.6,N
1499172935.9,286046998.6,N
1499172955.8,286047000.8,N
1499172975.6,286046998.1,N
1499172995.5,286047000.4,N
1499173015.3,286046999.7,N
1499173035.1,286047002.7,N
1499173055.9,286046999.8,N
1499173075.7,286047002.7,N
1499173095.5,286046999.8,N
1499173115.4,286047000.6,N
1499173135.2,286046999.9,N
1499173155.0,286047000.2,N
1499173156.0,286047000.2,N
1499173175.8,286047000.2,N
1499173195.6,286046999.7,N
